Weather History for Rexburg, ID

Change the Weather History Date:

Friday, February 15, 2013

  Actual Average Record
Temperature  
Mean Temperature 23 °F 22 °F  
Max Temperature 33 °F 32 °F 45 °F (2011)
Min Temperature 13 °F 12 °F -8 °F (2002)
Degree Days  
Heating Degree Days 42 43  
Month to date heating degree days 612 666  
Since 1 July heating degree days 5098 5443  
Cooling Degree Days 0 0  
Month to date cooling degree days 0 0  
Year to date cooling degree days 0 0  
Moisture  
Dew Point 18 °F    
Average Humidity 84    
Maximum Humidity 96    
Minimum Humidity 72    
Precipitation  
Precipitation 0.00 in 0.03 in 0.68 in (1979)
Month to date precipitation T 0.44  
Year to date precipitation 1.13 1.18  
Sea Level Pressure  
Sea Level Pressure 30.51 in    
Wind  
Wind Speed 4 mph (East)    
Max Wind Speed 10 mph    
Max Gust Speed 14 mph    
Visibility 8 miles    
Events Fog    
T = Trace of Precipitation, MM = Missing Value Source: NWS Daily Summary

Daily Weather History Graph

Daily Weather History Graph

Search for Another Location

Airport:

Trip Planner

Search our weather history database for the weather conditions in past years. The results will help you decide how hot, cold, wet, or windy it might be!

Date:

Astronomy

Feb. 15, 2013 Rise Set
Actual Time 7:25 AM MST 5:57 PM MST
Civil Twilight 6:56 AM MST 6:27 PM MST
Nautical Twilight 6:22 AM MST 7:00 PM MST
Astronomical Twilight 5:49 AM MST 7:34 PM MST
Moon 9:50 AM MST (2/15) No Moon Set
Length of Visible Light 11h 31m
Length of Day
10h 32m
Waxing Crescent, 31% of the Moon is Illuminated
Feb 15
Waxing Crescent
Feb 17
First Quarter
Feb 25
Full
Mar 4
Last Quarter
Mar 11
New

Hourly Weather History & Observations

Time (MST) Temp. Windchill Dew Point Humidity Pressure Visibility Wind Dir Wind Speed Gust Speed Precip Events Conditions
12:53 AM 14.0 °F - 10.9 °F 88% 30.51 in 8.0 mi Calm Calm - N/A   Clear
1:53 AM 14.0 °F 8.2 °F 12.0 °F 92% 30.53 in 8.0 mi East 3.5 mph - N/A   Clear
2:43 AM 14.0 °F 8.2 °F 12.2 °F 93% 30.40 in 5.0 mi ENE 3.5 mph - N/A   Scattered Clouds
2:47 AM 14.0 °F 6.5 °F 12.2 °F 93% 30.40 in 1.5 mi ENE 4.6 mph - N/A   Mostly Cloudy
2:53 AM 14.0 °F 6.5 °F 12.0 °F 92% 30.54 in 0.8 mi ENE 4.6 mph - N/A   Mostly Cloudy
3:23 AM 15.8 °F 7.2 °F 12.2 °F 86% 30.40 in 0.2 mi East 5.8 mph - N/A Fog Light Freezing Fog
3:30 AM 15.8 °F 6.1 °F 12.2 °F 86% 30.40 in 0.5 mi ENE 6.9 mph - N/A Fog Light Freezing Fog
3:36 AM 15.8 °F 7.2 °F 12.2 °F 86% 30.41 in 1.0 mi East 5.8 mph - N/A   Overcast
3:41 AM 15.8 °F 7.2 °F 12.2 °F 86% 30.40 in 3.0 mi ENE 5.8 mph - N/A   Overcast
3:50 AM 15.8 °F 7.2 °F 12.2 °F 86% 30.40 in 1.8 mi East 5.8 mph - N/A   Overcast
3:53 AM 15.1 °F 9.4 °F 14.0 °F 95% 30.54 in 2.0 mi East 3.5 mph - N/A   Overcast
4:15 AM 15.8 °F - 15.8 °F 100% 30.40 in 5.0 mi Calm Calm - N/A   Overcast
4:53 AM 15.1 °F - 12.0 °F 88% 30.54 in 10.0 mi Calm Calm - N/A   Mostly Cloudy
5:17 AM 14.0 °F 8.2 °F 12.2 °F 93% 30.41 in 10.0 mi ENE 3.5 mph - N/A   Scattered Clouds
5:53 AM 15.1 °F - 12.9 °F 91% 30.56 in 10.0 mi Calm Calm - N/A   Mostly Cloudy
6:53 AM 15.1 °F 9.4 °F 12.9 °F 91% 30.58 in 8.0 mi SW 3.5 mph - N/A   Mostly Cloudy
7:11 AM 21.2 °F 12.6 °F 19.4 °F 93% 30.44 in 10.0 mi SW 6.9 mph - N/A   Overcast
7:53 AM 21.0 °F 10.6 °F 19.0 °F 92% 30.58 in 10.0 mi SSW 9.2 mph - N/A   Mostly Cloudy
8:03 AM 21.2 °F 10.9 °F 19.4 °F 93% 30.44 in 10.0 mi SSW 9.2 mph - N/A   Scattered Clouds
8:53 AM 21.9 °F 13.4 °F 19.9 °F 92% 30.60 in 10.0 mi SSW 6.9 mph - N/A   Clear
9:41 AM 23.0 °F - 19.4 °F 86% 30.47 in 10.0 mi Calm Calm - N/A   Mostly Cloudy
10:13 AM 24.8 °F - 21.2 °F 86% 30.48 in 10.0 mi Calm Calm - N/A   Overcast
10:30 AM 26.6 °F - 21.2 °F 80% 30.48 in 10.0 mi Calm Calm - N/A   Scattered Clouds
10:53 AM 27.0 °F - 21.0 °F 78% 30.62 in 10.0 mi Calm Calm - N/A   Clear
11:53 AM 30.0 °F 25.2 °F 24.1 °F 79% 30.62 in 10.0 mi SW 4.6 mph - N/A   Clear
12:53 PM 30.0 °F 24.1 °F 24.1 °F 79% 30.62 in 10.0 mi Variable 5.8 mph - N/A   Clear
1:53 PM 30.0 °F 23.2 °F 25.0 °F 82% 30.60 in 10.0 mi WSW 6.9 mph - N/A   Clear
2:53 PM 30.9 °F 25.2 °F 25.0 °F 79% 30.58 in 10.0 mi WSW 5.8 mph - N/A   Clear
3:53 PM 30.9 °F 27.5 °F 24.1 °F 76% 30.59 in 10.0 mi WSW 3.5 mph - N/A   Clear
4:53 PM 30.9 °F 25.2 °F 23.0 °F 72% 30.59 in 10.0 mi East 5.8 mph - N/A   Clear
5:53 PM 28.9 °F 23.9 °F 23.0 °F 78% 30.58 in 10.0 mi ENE 4.6 mph - N/A   Clear
6:31 PM 26.6 °F 22.6 °F 21.2 °F 80% 30.43 in 10.0 mi ENE 3.5 mph - N/A   Mostly Cloudy
6:53 PM 25.0 °F 19.3 °F 19.9 °F 81% 30.59 in 10.0 mi NE 4.6 mph - N/A   Overcast
7:53 PM 24.1 °F 17.0 °F 19.0 °F 81% 30.56 in 10.0 mi NE 5.8 mph - N/A   Mostly Cloudy
8:37 PM 24.8 °F 20.5 °F 19.4 °F 80% 30.43 in 10.0 mi NE 3.5 mph - N/A   Overcast
8:53 PM 24.1 °F 18.2 °F 19.9 °F 84% 30.57 in 10.0 mi ENE 4.6 mph - N/A   Overcast
9:53 PM 26.1 °F - 21.0 °F 81% 30.55 in 10.0 mi Calm Calm - N/A   Overcast
10:53 PM 26.1 °F - 21.0 °F 81% 30.54 in 10.0 mi Calm Calm - N/A   Overcast
11:53 PM 26.1 °F - 21.9 °F 84% 30.53 in 10.0 mi Calm Calm - N/A   Overcast